Temperature
16 16 16 16 19 20 20 20 20 19 19 18 17 18 19 20 19 18 14 14 14 14 13 13 13 13 13 13 13 13 13 13 13 13 13 13 13 14 14 13 13 13 13 13 13 13 14 14 14
15 16 16 17 19 20 20 20 19 19 18 16 16 16 18 17 15 14 14 14 14 13 13 13 13 13 13 13 13 13 13 13 13 13 13 13 13 13 13 13 13 13 13 13 13 13 13 13 14
15 15 16 19 19 20 20 19 19 18 16 16 16 16 16 16 13 13 14 14 13 13 13 13 13 13 12 13 13 12 12 12 13 13 13 13 13 13 13 13 13 13 13 13 13 13 13 13 13
15 15 16 18 19 19 20 19 18 17 15 15 16 16 14 13 13 13 14 13 13 12 12 12 12 12 12 12 12 12 12 12 12 12 12 12 12 12 13 13 13 12 12 12 12 12 13 13 13
15 16 18 18 18 19 18 17 16 18 17 16 15 17 14 13 13 13 13 13 12 12 12 12 12 12 12 12 12 12 12 12 12 12 12 12 12 12 12 12 12 12 12 12 12 12 12 12 12
15 17 18 18 18 18 18 16 16 17 17 15 15 16 14 12 13 13 13 12 12 12 12 12 12 12 12 12 12 12 12 12 12 12 12 12 12 12 12 12 12 12 12 12 12 12 12 12 12
16 17 17 18 18 18 17 16 16 17 17 16 15 16 13 12 12 12 12 12 12 11 11 11 11 11 11 11 11 11 11 11 11 11 11 11 12 12 11 11 11 11 11 11 11 11 11 11 11
14 16 16 17 17 18 17 15 15 16 16 14 13 16 14 12 12 12 12 11 11 11 11 11 11 11 11 11 11 11 11 11 11 11 11 11 11 11 11 11 11 11 11 11 11 11 11 11 11
13 16 16 17 17 17 15 15 14 13 14 12 12 13 13 13 12 11 11 11 11 11 11 11 11 11 10 10 10 11 11 11 11 11 11 11 11 11 10 10 10 10 10 10 10 10 11 11 11
14 15 16 16 16 16 15 15 14 13 14 13 12 11 12 12 12 11 11 11 11 11 11 11 10 10 10 10 10 10 10 10 10 10 10 10 10 10 10 10 10 10 10 10 10 10 10 10 10
13 15 15 14 14 14 14 13 13 14 15 14 13 12 11 11 11 10 10 10 10 10 10 10 10 10 10 10 10 10 10 10 10 10 10 10 10 9 9 9 9 9 10 10 10 9 9 10 10
13 13 13 13 12 12 13 12 12 13 14 13 12 12 11 10 10 10 10 10 10 10 10 10 10 10 10 10 10 10 9 9 9 9 9 9 9 9 9 9 9 9 9 9 9 9 9 9 9
12 12 11 10 10 11 11 11 12 12 11 11 11 11 11 10 10 10 10 10 9 9 10 10 10 9 9 9 9 9 9 9 9 9 9 9 9 9 9 9 9 9 9 8 8 8 8 8 8
11 11 10 10 10 10 11 11 11 11 10 10 10 10 10 10 9 9 9 9 9 9 9 9 9 9 9 9 9 9 9 9 8 8 8 8 8 8 8 8 8 8 8 8 8 8 8 8 8
9 10 11 11 10 10 11 11 11 11 10 9 9 9 9 9 8 9 9 9 9 9 9 9 9 9 8 8 8 8 8 8 8 8 8 8 8 8 8 8 8 8 7 7 7 7 7 7 7
10 11 11 11 10 10 11 12 12 10 9 9 9 8 8 8 8 8 8 8 8 8 8 8 8 8 8 8 8 8 8 8 8 7 7 7 7 7 7 7 7 7 7 7 7 7 6 6 6
11 11 12 11 10 10 10 12 11 9 9 9 9 8 7 7 7 7 8 8 8 8 8 8 8 8 8 7 7 7 7 7 7 7 7 7 7 7 7 7 7 6 6 6 6 6 6 6 6
11 11 11 11 10 10 10 11 11 9 8 9 8 7 7 7 7 7 7 7 7 7 7 7 7 7 7 7 7 7 7 7 7 6 6 6 6 6 6 6 6 6 6 6 5 5 5 5 5
10 10 11 11 9 9 10 10 11 9 8 8 8 7 7 6 6 6 6 7 7 7 7 7 7 7 7 7 6 6 6 6 6 6 6 6 6 6 6 5 5 5 5 5 5 5 5 5 5
9 10 10 10 8 8 9 9 10 9 8 7 7 7 6 6 6 6 6 6 6 6 6 6 6 6 6 6 6 6 6 6 6 6 6 5 5 5 5 5 5 5 5 5 5 4 4 4 4
9 9 10 9 8 8 8 9 9 9 7 6 6 6 6 5 5 5 5 5 5 5 5 5 6 6 6 6 6 5 5 5 5 5 5 5 5 5 5 5 4 4 4 4 4 4 4 4 4
9 9 8 8 8 9 8 9 10 9 8 7 6 5 5 5 4 4 4 4 5 5 5 5 5 5 5 5 5 5 5 5 5 5 5 5 5 4 4 4 4 4 4 4 4 4 4 4 4
8 7 7 7 8 8 8 8 10 8 8 7 6 5 4 4 3 3 4 4 4 4 4 4 4 4 4 5 5 5 4 5 4 4 4 4 4 4 4 4 4 4 3 3 3 3 3 3 3
6 7 6 7 7 7 8 8 10 8 8 7 6 4 3 3 3 3 3 3 3 3 3 3 3 4 4 4 4 4 4 4 4 4 4 4 4 4 3 3 3 3 3 3 3 3 3 3 2
6 7 8 8 7 8 8 8 8 7 6 6 5 4 3 2 2 2 2 2 3 3 3 3 3 3 3 3 4 4 3 3 4 4 4 3 3 3 3 3 3 3 3 3 2 2 2 2 2
6 7 7 7 8 8 7 7 8 5 3 3 3 3 2 2 2 2 2 2 2 2 2 2 3 3 3 3 3 3 3 3 3 3 3 3 3 3 3 3 3 2 2 2 2 2 2 2 2
6 6 6 6 6 6 8 7 6 4 3 2 2 1 1 1 1 1 1 1 2 1 2 2 2 2 2 2 2 2 2 2 2 2 2 3 3 3 3 2 2 2 2 2 2 1 1 1 1
5 5 5 6 6 7 8 7 7 4 3 2 2 1 0 0 0 0 1 1 1 1 1 1 1 1 1 2 1 2 1 2 2 2 2 2 2 2 2 2 2 2 1 1 1 1 1 1 1
4 4 5 5 5 6 7 7 5 4 3 2 1 0 -0 -0 -0 -0 -0 0 0 0 0 0 0 0 1 1 1 1 1 1 1 1 1 1 2 1 1 1 1 1 1 1 1 1 1 1 1
4 4 4 4 4 4 5 6 3 2 2 1 0 -1 -1 -1 -1 -1 -1 -0 -0 -0 -0 -0 -0 -0 0 0 0 0 0 0 1 1 1 1 1 1 1 1 1 0 0 0 0 0 0 0 0
Wind_Speed
1 2 3 3 5 6 11 8 6 6 5 3 3 4 5 4 2 1 4 7 9 11 12 13 12 13 12 12 12 12 12 13 12 12 12 12 12 12 12 12 12 13 13 13 14 14 14 15 15
2 3 3 4 7 11 10 9 10 7 4 5 4 4 4 3 0 3 5 8 10 12 12 13 14 13 13 13 13 13 13 13 12 12 12 12 12 12 12 12 12 13 13 14 14 14 14 14 14
3 2 4 5 9 13 10 6 8 7 5 5 5 3 3 2 3 3 5 10 11 11 12 13 14 14 13 13 13 13 13 13 13 13 12 12 12 12 12 12 12 13 13 14 14 14 14 14 14
4 4 4 8 15 14 10 5 5 7 7 5 5 4 2 1 2 3 8 11 12 12 12 14 14 14 13 13 13 13 13 12 12 12 12 12 12 12 12 12 13 13 13 13 14 13 13 14 14
3 4 8 11 16 12 8 6 7 8 7 7 7 5 4 3 3 6 10 12 12 12 11 14 14 14 13 13 13 13 13 12 12 12 12 12 12 12 12 12 12 12 13 13 13 13 13 13 14
5 5 10 15 16 11 8 8 8 8 7 6 7 6 4 4 5 8 10 11 11 11 11 13 14 14 13 14 14 13 13 12 12 12 12 12 12 12 12 12 12 12 12 13 13 13 13 14 14
7 7 13 15 14 13 9 8 10 9 9 7 5 5 4 5 6 8 10 10 10 11 11 11 13 13 13 13 14 13 13 13 13 13 12 12 12 12 11 11 11 12 12 12 12 13 13 14 14
5 6 11 13 14 13 8 8 7 9 8 4 5 6 5 7 9 10 10 9 9 9 9 10 11 12 12 12 13 13 13 13 13 13 13 13 12 12 11 11 11 11 12 12 12 13 13 13 14
5 9 14 14 13 10 7 7 6 4 6 5 4 3 1 11 12 12 10 9 9 8 8 9 10 10 11 11 12 12 11 12 12 12 12 11 9 9 9 10 11 11 12 12 13 12 13 13 13
7 12 16 11 9 7 7 8 7 6 8 7 6 4 6 12 14 14 14 13 12 11 9 8 9 10 10 9 10 9 9 9 9 9 9 8 8 8 9 11 11 11 12 12 12 12 10 9 8
7 12 11 9 7 6 7 6 6 8 9 10 9 9 11 13 14 14 14 14 13 12 10 9 9 9 10 8 8 7 7 8 8 8 8 8 7 7 7 7 8 9 9 9 9 8 7 7 7
7 9 8 7 6 6 7 6 7 10 8 4 5 8 12 14 15 15 14 13 12 11 11 9 9 9 9 8 7 7 6 6 6 7 8 7 6 6 5 5 5 5 5 6 6 6 7 8 8
10 8 7 7 6 7 7 9 9 10 8 3 2 7 11 13 13 12 12 12 12 11 11 10 10 9 9 8 7 7 6 6 7 7 7 7 6 5 5 5 5 5 5 5 5 6 7 7 7
6 6 6 6 6 6 8 9 9 11 6 5 6 8 10 12 12 11 11 11 11 11 11 10 10 10 9 8 7 6 6 7 7 7 7 7 6 5 5 5 5 5 5 5 5 6 6 6 6
4 5 7 7 8 6 6 11 13 10 8 8 9 9 9 10 11 11 11 11 11 11 10 10 10 10 10 8 7 6 6 7 6 7 8 7 6 6 6 5 4 5 5 6 6 6 6 5 5
5 7 8 6 6 5 8 15 8 7 9 10 9 9 9 10 10 10 10 10 10 10 10 10 9 10 9 8 7 6 6 7 6 7 8 8 7 7 6 5 5 6 6 6 5 5 4 4 4
7 9 11 7 7 6 9 13 7 6 9 11 10 10 9 9 10 9 9 10 10 10 10 9 9 10 9 8 7 7 6 6 6 6 7 8 8 8 6 5 5 6 5 5 4 4 4 4 4
8 9 10 11 6 8 12 15 10 7 9 10 10 9 10 10 10 9 9 9 9 9 10 9 9 9 8 7 6 5 6 5 5 5 6 8 8 8 7 6 6 7 5 4 4 5 4 4 4
8 10 12 10 6 8 14 17 14 10 9 10 10 9 10 10 9 8 8 8 8 8 9 10 9 9 8 7 6 6 6 5 5 5 6 8 8 8 7 6 6 6 5 5 6 5 6 4 4
10 12 12 8 5 7 12 16 14 11 11 10 11 10 10 9 8 8 8 8 8 9 9 9 9 9 9 8 6 5 5 4 4 5 6 7 8 8 7 7 6 6 5 6 6 6 4 3 3
12 13 12 9 6 8 9 12 12 10 10 9 8 9 9 8 9 8 9 9 9 9 10 9 9 9 9 9 6 5 4 4 4 4 4 6 7 8 8 8 7 7 6 6 7 7 6 5 3
11 9 9 9 8 7 6 9 9 8 8 8 8 8 8 7 7 7 8 9 10 10 9 9 8 9 9 9 9 10 8 6 6 6 5 6 7 7 8 8 8 7 6 7 7 7 5 6 4
7 5 8 10 10 10 10 9 8 6 8 8 8 8 7 7 7 7 7 8 8 8 8 8 8 8 8 9 10 10 8 6 5 6 7 6 6 6 7 8 7 7 6 7 7 7 6 5 5
3 2 3 5 7 10 11 11 9 5 7 7 7 6 6 5 5 6 6 6 6 6 7 7 8 8 8 8 9 10 10 9 8 8 8 6 5 5 6 7 7 7 7 7 7 7 7 6 6
3 3 3 4 6 7 5 8 7 2 3 5 6 6 5 4 5 4 5 5 6 7 7 7 8 8 8 8 8 9 9 10 10 9 8 7 6 5 7 7 7 7 7 7 7 7 7 7 7
6 6 5 5 6 5 4 8 4 1 3 4 3 2 3 3 4 4 5 5 6 7 7 7 9 8 8 7 7 7 8 7 7 8 8 8 6 7 7 8 7 8 8 7 7 6 6 6 6
5 6 4 4 6 7 7 6 5 2 4 4 3 2 2 2 3 4 5 5 6 6 7 7 8 8 8 8 7 6 7 7 7 7 7 6 6 6 8 8 7 7 8 8 7 6 6 6 6
2 3 3 4 5 7 8 8 5 3 5 5 4 3 3 3 3 4 4 5 5 5 6 6 6 6 7 7 6 6 7 7 6 7 7 6 6 5 7 7 7 6 7 7 7 6 6 6 6
3 3 4 4 4 5 7 5 1 3 4 5 5 4 4 4 4 4 4 4 4 4 5 5 5 5 5 5 6 6 6 6 6 6 6 6 6 6 6 6 7 6 7 7 7 6 7 7 6
3 4 5 5 6 6 6 6 2 3 5 6 6 5 4 4 3 3 3 4 4 4 5 5 5 5 5 5 5 6 6 6 6 6 5 6 6 6 6 6 6 6 6 7 7 7 7 7 7
Wind_Direction
194 170 189 204 215 228 234 221 212 190 193 193 175 193 204 201 212 115 94 150 150 151 152 151 143 137 132 126 121 115 110 106 103 99 95 94 91 87 85 83 83 81 81 80 77 76 75 73 71
178 178 192 209 227 230 231 219 212 205 171 152 170 195 200 204 106 99 131 150 152 150 150 150 141 138 133 128 123 118 111 106 103 99 96 94 92 88 86 84 83 82 81 80 78 76 76 73 72
167 200 206 210 227 234 229 205 213 197 177 181 176 196 215 175 147 137 137 153 151 149 149 143 141 139 135 130 125 120 114 109 104 100 96 94 92 89 87 85 83 82 81 80 79 78 76 74 73
180 181 210 227 231 233 239 210 182 185 194 204 194 173 170 120 144 133 144 154 151 148 148 142 142 140 137 134 130 124 120 113 108 103 98 94 92 90 88 86 83 83 83 83 82 80 77 76 76
193 202 214 228 236 237 234 222 192 199 194 194 201 201 173 135 123 138 151 155 151 147 145 144 141 139 136 134 132 127 123 118 111 106 101 96 93 91 88 87 85 85 85 85 84 82 79 78 77
185 210 225 232 234 234 226 212 203 215 208 191 198 203 184 134 149 148 151 153 148 145 142 142 140 136 134 133 131 128 125 119 113 108 103 99 95 92 91 89 87 86 86 85 84 82 80 78 76
206 213 233 237 238 236 223 203 213 216 215 204 194 195 180 166 156 148 150 148 145 142 141 140 142 138 134 131 128 124 122 118 115 110 106 101 96 94 93 91 89 89 88 86 85 83 80 77 74
213 216 233 233 236 237 213 199 216 223 224 202 204 212 197 169 152 147 146 146 144 143 144 142 142 141 139 135 126 121 118 115 114 109 105 101 98 95 94 93 92 93 91 87 87 84 81 77 75
203 223 232 229 232 233 198 201 202 220 211 201 214 249 110 141 150 151 152 155 154 151 152 149 146 144 142 139 133 128 123 118 117 111 108 108 108 103 98 91 92 92 91 88 87 84 80 79 75
205 226 234 234 235 232 203 211 199 195 211 217 216 192 145 153 163 168 171 172 172 169 164 158 155 152 147 142 141 139 137 134 129 127 124 117 110 103 100 91 86 88 89 88 85 84 81 79 80
210 230 236 236 236 230 214 218 207 213 227 231 223 194 169 172 178 182 183 181 180 175 169 165 160 156 154 148 145 142 143 140 134 131 129 124 116 112 109 106 95 91 92 89 87 83 77 75 74
220 235 238 239 233 225 222 218 222 229 244 271 233 185 178 184 189 190 188 186 183 179 177 171 165 159 158 155 151 148 145 142 137 137 137 134 125 121 117 111 109 105 97 96 91 85 82 79 75
228 236 240 244 240 238 232 233 239 243 256 263 196 183 190 193 196 195 190 188 186 186 182 177 170 166 161 155 153 151 150 147 145 143 144 144 137 130 124 117 113 109 109 108 103 96 88 81 74
228 233 244 246 239 234 234 246 240 242 231 214 198 198 201 201 199 195 193 192 192 189 186 180 176 172 168 163 158 154 152 151 150 147 150 150 145 139 131 123 118 117 118 115 113 106 96 84 80
218 239 252 242 238 235 236 247 236 236 219 214 211 209 208 209 205 202 199 196 195 191 185 183 178 175 175 170 161 154 154 156 154 152 154 154 152 149 142 133 127 124 124 122 117 109 102 94 87
221 235 243 228 222 227 228 250 232 222 218 221 217 213 213 214 211 207 203 199 195 190 186 183 179 177 176 170 161 154 156 157 157 158 157 158 158 155 147 141 135 134 133 132 127 124 115 104 93
221 239 247 245 220 220 228 253 248 227 224 228 224 220 218 220 217 211 207 201 196 191 187 182 180 179 176 167 158 154 155 155 156 163 162 162 163 162 155 147 142 143 138 135 131 131 128 119 102
230 240 247 250 231 232 240 252 256 242 234 235 231 227 224 225 221 211 207 202 197 191 187 183 180 177 170 160 152 150 153 155 157 165 170 167 167 166 157 149 151 149 145 144 142 136 128 123 116
242 243 250 254 254 244 248 256 255 245 236 237 234 230 228 233 226 210 203 199 195 191 188 185 182 178 170 168 168 170 173 170 168 169 172 173 171 168 161 154 156 160 159 156 152 142 134 130 132
239 247 254 261 253 256 263 262 257 242 235 236 236 234 232 235 226 215 205 200 199 197 193 189 187 183 180 178 176 177 170 173 169 168 171 176 173 172 168 163 166 168 161 158 158 153 152 154 170
243 243 250 259 276 254 275 265 239 235 229 232 238 239 234 233 228 218 210 206 202 201 198 194 190 186 184 177 164 152 150 154 167 173 176 178 176 177 174 173 172 175 174 172 173 173 170 170 182
248 244 250 252 257 257 244 272 248 230 224 230 234 236 238 238 232 220 215 210 207 204 200 194 190 187 186 180 175 173 182 186 191 186 183 181 179 177 179 177 178 179 182 181 183 185 183 177 182
248 265 253 249 247 260 240 251 259 219 236 239 236 237 237 237 233 225 221 215 210 203 197 193 188 188 187 187 185 184 189 187 179 178 181 182 181 179 182 181 183 185 187 187 188 188 189 193 195
234 247 248 234 234 245 234 232 260 225 239 252 249 246 236 236 234 230 227 218 207 201 194 190 188 191 190 191 190 192 190 183 179 182 184 185 183 184 188 186 188 190 191 192 193 193 196 201 204
213 228 240 229 224 243 214 232 253 258 273 274 264 249 235 228 230 228 224 214 204 201 196 192 190 193 193 194 194 196 195 191 188 187 189 187 188 193 194 191 194 193 194 193 192 194 199 203 205
210 210 227 248 251 270 237 235 247 358 335 332 303 259 243 237 232 229 226 213 208 205 200 197 194 194 194 195 198 197 196 195 196 194 192 194 195 196 194 194 197 196 193 192 193 196 197 201 205
202 220 253 259 269 265 249 250 261 303 339 343 344 334 291 267 249 236 230 218 214 209 206 202 200 197 195 196 196 196 197 197 196 195 195 196 195 192 191 193 193 196 192 192 192 195 197 200 204
251 197 202 220 247 260 259 252 257 308 317 316 307 300 295 280 270 255 233 222 217 212 210 205 201 198 197 197 196 197 200 199 195 193 193 192 189 187 187 190 191 194 192 192 194 195 196 198 203
188 194 218 225 247 253 263 261 15 314 320 314 307 308 294 277 273 262 239 221 216 210 202 201 200 196 193 199 201 197 199 196 193 194 196 193 188 186 186 189 190 194 193 193 196 198 195 199 201
233 226 211 219 236 240 258 270 29 337 336 330 324 313 305 287 276 261 233 216 209 205 202 201 198 198 198 198 199 198 197 192 191 194 194 192 189 187 186 187 190 194 196 194 194 196 198 201 203
Height
1509 1510 1512 1515 1514 1509 1505 1503 1504 1507 1509 1511 1512 1512 1511 1511 1513 1518 1518 1517 1519 1522 1524 1527 1529 1531 1533 1534 1535 1536 1537 1538 1539 1540 1540 1541 1541 1541 1541 1541 1542 1542 1542 1542 1542 1542 1542 1542 1543
1508 1510 1513 1514 1509 1506 1501 1500 1504 1505 1508 1511 1512 1513 1512 1513 1514 1515 1515 1516 1519 1522 1524 1527 1529 1531 1533 1534 1536 1537 1538 1539 1539 1540 1541 1541 1542 1542 1542 1542 1542 1542 1542 1543 1543 1543 1543 1543 1544
1508 1510 1513 1509 1504 1499 1496 1499 1501 1506 1509 1510 1511 1512 1513 1513 1514 1514 1514 1516 1519 1522 1524 1527 1529 1531 1533 1534 1536 1537 1538 1539 1540 1541 1541 1542 1542 1542 1543 1543 1543 1543 1543 1543 1543 1544 1544 1544 1545
1508 1511 1511 1506 1499 1495 1496 1499 1503 1506 1509 1510 1510 1511 1512 1512 1512 1513 1514 1516 1519 1522 1524 1526 1529 1531 1533 1534 1535 1537 1538 1539 1540 1541 1541 1542 1542 1543 1543 1543 1543 1543 1543 1544 1544 1544 1544 1545 1545
1507 1508 1505 1501 1496 1494 1499 1502 1504 1504 1505 1507 1509 1508 1510 1511 1511 1512 1514 1516 1519 1522 1524 1526 1529 1531 1533 1534 1535 1537 1538 1539 1540 1541 1541 1542 1542 1543 1543 1543 1543 1544 1544 1544 1544 1545 1545 1546 1546
1506 1504 1500 1495 1492 1494 1499 1502 1504 1503 1504 1506 1508 1508 1509 1510 1510 1512 1514 1516 1519 1521 1524 1526 1528 1530 1532 1534 1535 1536 1538 1539 1540 1541 1541 1542 1542 1543 1543 1543 1544 1544 1544 1544 1545 1545 1546 1546 1546
1503 1500 1494 1491 1491 1492 1497 1501 1501 1501 1502 1505 1506 1507 1508 1509 1509 1511 1513 1516 1519 1521 1523 1526 1528 1530 1532 1534 1535 1536 1537 1539 1539 1540 1541 1542 1542 1542 1543 1543 1544 1544 1544 1545 1545 1545 1546 1546 1547
1499 1498 1493 1490 1489 1489 1495 1498 1500 1501 1501 1504 1505 1505 1506 1507 1508 1510 1513 1515 1518 1520 1523 1525 1527 1529 1531 1533 1534 1536 1537 1538 1539 1540 1540 1541 1542 1542 1543 1543 1544 1544 1544 1545 1545 1546 1546 1546 1547
1498 1497 1488 1486 1488 1488 1494 1496 1498 1500 1501 1502 1503 1504 1504 1504 1506 1509 1512 1514 1517 1519 1521 1524 1526 1528 1530 1532 1533 1535 1536 1537 1538 1539 1540 1541 1541 1542 1542 1543 1544 1544 1544 1545 1545 1546 1546 1547 1547
1495 1489 1482 1485 1488 1489 1493 1494 1496 1498 1499 1500 1501 1501 1502 1503 1505 1507 1509 1511 1514 1517 1519 1521 1524 1526 1528 1530 1532 1533 1535 1536 1537 1538 1539 1540 1540 1541 1542 1542 1543 1544 1544 1544 1545 1546 1546 1547 1547
1490 1485 1484 1488 1490 1491 1492 1494 1495 1495 1494 1496 1497 1498 1500 1502 1503 1505 1507 1509 1511 1514 1517 1519 1522 1524 1526 1528 1530 1531 1533 1534 1535 1536 1537 1538 1539 1540 1541 1542 1542 1543 1544 1544 1545 1545 1546 1547 1547
1488 1486 1488 1488 1490 1491 1492 1493 1494 1493 1493 1494 1495 1496 1497 1499 1501 1503 1505 1507 1510 1512 1514 1517 1519 1521 1524 1526 1528 1529 1531 1532 1533 1534 1536 1537 1538 1539 1540 1541 1542 1542 1543 1544 1544 1545 1546 1546 1547
1486 1486 1488 1489 1489 1490 1491 1491 1492 1491 1492 1492 1493 1494 1495 1497 1499 1501 1503 1505 1507 1509 1512 1514 1516 1519 1521 1523 1525 1527 1528 1530 1531 1533 1534 1535 1536 1537 1539 1540 1540 1541 1542 1543 1543 1544 1545 1545 1546
1485 1487 1487 1488 1488 1489 1489 1489 1490 1487 1490 1490 1491 1492 1493 1494 1496 1498 1500 1502 1504 1506 1509 1511 1513 1516 1518 1520 1522 1524 1526 1528 1529 1531 1532 1534 1535 1536 1537 1538 1539 1540 1541 1542 1542 1543 1544 1544 1545
1487 1486 1485 1485 1486 1487 1488 1485 1484 1485 1487 1488 1489 1490 1490 1492 1493 1494 1496 1498 1501 1503 1505 1508 1510 1513 1515 1517 1519 1521 1523 1525 1527 1528 1530 1532 1533 1534 1535 1536 1537 1538 1539 1540 1541 1542 1543 1543 1544
1485 1483 1479 1481 1484 1485 1487 1476 1479 1482 1483 1484 1485 1487 1488 1489 1490 1491 1493 1495 1498 1500 1503 1505 1507 1509 1512 1514 1516 1518 1520 1522 1524 1526 1528 1529 1531 1532 1533 1534 1535 1537 1538 1539 1539 1540 1541 1542 1543
1480 1476 1475 1477 1481 1482 1482 1473 1477 1479 1480 1481 1482 1483 1484 1485 1486 1488 1489 1492 1494 1497 1499 1501 1503 1506 1508 1511 1513 1515 1517 1519 1521 1523 1525 1526 1528 1530 1531 1532 1533 1534 1536 1537 1538 1539 1540 1540 1541
1473 1473 1474 1474 1477 1479 1477 1473 1474 1477 1478 1478 1479 1480 1481 1482 1482 1484 1486 1488 1490 1493 1495 1497 1500 1502 1505 1507 1510 1512 1514 1516 1518 1520 1522 1524 1525 1527 1528 1529 1531 1532 1533 1534 1536 1537 1538 1539 1539
1474 1473 1471 1472 1477 1477 1472 1469 1469 1473 1475 1475 1475 1476 1477 1478 1479 1481 1482 1484 1486 1488 1490 1492 1495 1497 1500 1503 1505 1507 1510 1512 1515 1517 1519 1520 1522 1524 1525 1527 1528 1529 1531 1532 1533 1534 1535 1537 1538
1475 1473 1470 1472 1477 1476 1470 1467 1465 1468 1469 1470 1471 1472 1473 1474 1475 1476 1478 1480 1481 1483 1485 1488 1490 1493 1496 1499 1501 1504 1506 1509 1511 1513 1515 1517 1519 1520 1522 1523 1525 1526 1528 1529 1531 1532 1533 1534 1536
1472 1470 1469 1472 1475 1474 1473 1460 1460 1462 1465 1467 1468 1468 1469 1470 1471 1472 1474 1475 1477 1479 1481 1483 1485 1488 1491 1494 1497 1500 1503 1505 1507 1509 1511 1513 1515 1517 1518 1520 1522 1523 1525 1526 1528 1529 1531 1531 1533
1468 1469 1471 1472 1472 1466 1470 1457 1449 1455 1458 1461 1463 1464 1465 1466 1467 1468 1469 1471 1473 1475 1477 1479 1482 1484 1487 1490 1492 1495 1497 1499 1502 1504 1507 1509 1511 1513 1515 1516 1518 1520 1521 1523 1525 1526 1528 1529 1530
1469 1471 1472 1471 1469 1467 1465 1463 1444 1452 1453 1455 1458 1460 1461 1463 1463 1464 1465 1467 1469 1471 1473 1476 1478 1480 1483 1485 1488 1491 1493 1496 1498 1501 1503 1505 1507 1509 1511 1513 1515 1516 1518 1519 1521 1523 1524 1526 1527
1472 1472 1471 1470 1468 1464 1455 1457 1440 1446 1449 1451 1455 1456 1457 1459 1460 1460 1462 1463 1465 1467 1469 1472 1474 1476 1478 1481 1483 1486 1489 1491 1494 1496 1498 1500 1502 1504 1506 1508 1510 1512 1514 1515 1517 1519 1521 1522 1524
1471 1468 1463 1460 1459 1450 1454 1453 1444 1447 1450 1451 1452 1454 1454 1456 1456 1457 1458 1459 1460 1463 1465 1467 1470 1472 1474 1477 1479 1482 1484 1487 1489 1491 1493 1495 1497 1499 1502 1504 1506 1508 1509 1511 1513 1515 1516 1518 1520
1468 1466 1462 1460 1451 1446 1454 1448 1444 1452 1453 1452 1452 1452 1452 1453 1454 1454 1455 1456 1457 1459 1461 1463 1465 1468 1470 1472 1474 1477 1480 1482 1485 1487 1489 1491 1493 1495 1497 1499 1501 1503 1505 1507 1508 1510 1512 1513 1515
1466 1465 1465 1463 1458 1456 1444 1443 1447 1452 1452 1452 1452 1451 1451 1452 1452 1452 1452 1454 1455 1456 1457 1459 1462 1464 1466 1468 1470 1472 1475 1477 1480 1482 1485 1487 1489 1492 1493 1495 1497 1499 1500 1502 1504 1505 1507 1509 1510
1469 1466 1466 1464 1459 1448 1438 1438 1439 1448 1450 1451 1450 1450 1450 1450 1450 1450 1450 1451 1452 1454 1455 1457 1458 1460 1462 1464 1467 1468 1471 1473 1476 1478 1480 1482 1485 1487 1489 1491 1492 1494 1496 1497 1499 1501 1502 1504 1505
1469 1469 1466 1462 1459 1451 1441 1438 1446 1449 1450 1451 1450 1450 1449 1449 1448 1448 1448 1449 1450 1451 1452 1454 1455 1457 1459 1461 1463 1465 1467 1469 1471 1473 1476 1478 1480 1482 1484 1486 1488 1489 1491 1492 1494 1496 1497 1498 1500
1468 1466 1466 1463 1461 1458 1449 1447 1451 1452 1451 1451 1450 1449 1448 1448 1447 1446 1446 1447 1448 1449 1450 1451 1452 1454 1455 1458 1460 1462 1463 1465 1467 1469 1471 1473 1475 1477 1479 1481 1483 1484 1486 1487 1489 1490 1492 1493 1494